www.pogodaiklimat.ru

Погода и климат >> Архив погоды >> Россия >> Краснодарский край >> Горячий Ключ


ПОГОДА в Горячем Ключе

  • Прогноз погоды в Горячем Ключе
  • Монитор погоды в Горячем Ключе

АРХИВ ПОГОДЫ в Горячем Ключе

Время (UTC), дата Ветер
(напр.,м/с)
 
Видим.   Явления Облачность Т
(С)
Тd
(С)
f
(%)
Тe
(С)
Тes
(С)
Комфортность P
(гПа)
Po
(гПа)
Тmin
(С)
Tmax
(С)
R
(мм)
R24
(мм)
S
(см)
06 19.08 С 1 20 км {гроза, ливн. осадки} 10/9 600 м
[Cb calv Ac und]
+20.2 +18.1 88 +25 +25 комфорт 1015.8 1008.5 +18.0
09 19.08 С 1 20 км 10/8 600 м
[Cb calv Ac und]
+24.2 +19.1 73 +29 +30 душно 1015.4 1008.3
12 19.08 С 1 20 км 8/5 600 м
[Cb calv Ac trans]
+26.3 +20.4 70 +33 +36 очень
душно
1015.2 1008.1
15 19.08 С 1 20 км 8/4 600 м
[Cb calv Ac trans]
+25.2 +20.6 76 +31 +32 очень
душно
1015.3 1008.2 +26.5 3
18 19.08 Ю 1 20 км 5/0
[Cs]
+22.7 +20.8 89 +30 +30 очень
душно
1016.3 1009.1
21 19.08 штиль 0 н/о н/о +21.9 +20.6 92 +28 +28 душно 1016.4 1009.2
00 20.08 штиль 0 20 км 1/0 2000 м
[Ac trans]
+20.4 +19.5 95 +24 +24 комфорт 1016.0 1008.8
03 20.08 Ю 1 4000 м дымка 8/0 2000 м
[Ac trans Cs]
+20.7 +19.8 95 +26 +26 душно 1016.6 1009.4 +20.1
06 20.08 В 1 20 км 4/4 600 м
[Sc]
+24.2 +20.3 79 +30 +35 очень
душно
1016.7 1009.6
09 20.08 В 1 20 км 4/3 1000 м
[Cu med, cong Ac cast]
+28.7 +21.2 64 +36 +48 очень
душно
1016.0 1009.0
12 20.08 С 1 20 км {гроза, ливн. осадки} 1/1 1000 м
[Cb calv]
+31.3 +20.7 53 +38 +49 очень
душно
1014.8 1007.8
15 20.08 штиль 0 20 км 3/0 2000 м
[Ac cast Ci fib]
+31.3 +18.5 47 +36 +37 очень
душно
1013.7 1006.7 +32.5 0.0
18 20.08 З 1 20 км 3/3 1000 м
[Cb calv Ac trans]
+23.6 +20.7 84 +29 +29 душно 1015.5 1008.4
21 20.08 З 1 20 км 10/3 1000 м
[Cb calv Ac und]
+23.2 +20.4 84 +30 +30 очень
душно
1014.9 1007.7
00 21.08 З 2 20 км 8/3 1000 м
[Cb calv Ac trans Cc]
+22.4 +20.2 87 +29 +29 очень
душно
1014.1 1006.9
03 21.08 З 1 20 км 8/5 600 м
[Cb calv Ac cuf]
+21.7 +20.3 92 +27 +27 душно 1013.3 1006.2 +21.2
06 21.08 С 1 20 км 3/0
[Ci]
+27.4 +19.3 61 +33 +41 очень
душно
1013.7 1006.6
09 21.08 В 1 20 км 4/3 600 м
[Cb calv Ac cuf Ci ing]
+29.8 +19.5 54 +36 +47 очень
душно
1012.5 1005.6
12 21.08 СЗ 2 20 км 6/4 600 м
[Cb calv Ac trans Cc]
+30.3 +19.8 53 +36 +41 очень
душно
1011.3 1004.3
15 21.08 ЮЗ 1 20 км 6/4 600 м
[Cb calv Ac trans Cc]
+31.2 +20.8 54 +38 +39 очень
душно
1009.3 1002.4 +31.9
18 21.08 Ю 1 20 км гроза без осадков 6/5 600 м
[Cb calv Ac cuf Ci ing]
+24.2 +19.1 73 +29 +29 душно 1009.1 1002.0
21 21.08 З 1 20 км гроза, пыльная буря 6/4 600 м
[Cb calv Ac trans Cc]
+22.6 +16.8 70 +27 +27 душно 1010.0 1002.8
00 22.08 ЮВ 2 20 км {гроза, ливн. осадки} 4/4 600 м
[Cu hum]
+22.6 +15.0 62 +26 +26 жарко 1009.3 1002.1
03 22.08 С 1 20 км 8/8 600 м
[Cb calv]
+22.5 +15.3 64 +26 +26 жарко 1010.2 1003.0 +21.6 0.0
06 22.08 З 1 20 км {ливн. осадки} 9/8 600 м
[Cb calv Ac cuf]
+24.0 +18.7 72 +29 +30 душно 1010.7 1003.6
09 22.08 Ю 1 20 км 9/8 600 м
[Cb calv Ac cuf]
+24.9 +16.7 60 +28 +31 жарко 1011.4 1004.3
12 22.08 СЗ 1 20 км 9/8 600 м
[Cb calv Ac cuf]
+26.2 +17.2 58 +30 +32 душно 1011.0 1003.9
15 22.08 штиль 0 20 км 9/4 600 м
[Cb calv Ac trans Ci fib]
+25.4 +19.9 72 +31 +32 очень
душно
1010.5 1003.4 +26.5 0.0
18 22.08 Ю 1 20 км 8/6 600 м
[Cb calv Ac cuf Ci fib]
+21.9 +18.4 81 +27 +27 душно 1011.2 1004.0
21 22.08 Ю 1 20 км 5/3
[Cu med, cong Ac trans Ci fib]
+20.0 +17.2 84 +24 +24 комфорт 1011.2 1004.0
00 23.08 З 1 20 км 8/0 2000 м
[Ac trans Cs]
+19.6 +18.1 91 +23 +23 комфорт 1012.2 1004.9
03 23.08 З 1 20 км 9/1 1000 м
[Cu med, cong Ac trans Cs]
+18.8 +17.5 92 +21 +21 комфорт 1012.2 1004.9 +18.4
06 23.08 С 1 20 км 6/0 2000 м
[Ac cast Cc]
+24.5 +16.8 62 +28 +35 душно 1012.7 1005.6
09 23.08 С 1 20 км 6/1 1000 м
[Cu hum Cc]
+29.8 +17.6 48 +34 +48 очень
душно
1012.5 1005.5
12 23.08 СЗ 1 20 км 4/1 1000 м
[Cu med, cong Ac cast Ci fib]
+33.2 +16.9 38 +36 +45 очень
душно
1011.9 1005.0
15 23.08 З 1 20 км 8/3 1000 м
[Cb calv Ac cast Cc]
+31.9 +18.1 44 +36 +37 очень
душно
1011.7 1004.7 +33.4
18 23.08 Ю 1 20 км 3/0
[Ci fib]
+22.6 +18.3 77 +28 +28 душно 1012.2 1005.1
21 23.08 ЮЗ 1 20 км 5/0
[Ci]
+20.9 +18.0 83 +26 +26 душно 1012.1 1004.9
00 24.08 СЗ 1 20 км 6/0
[Cs]
+21.2 +18.3 84 +25 +25 комфорт 1012.7 1005.5
03 24.08 З 1 20 км 3/1 1000 м
[Cb calv Ci ing]
+19.2 +17.8 92 +22 +22 комфорт 1013.4 1006.2 +19.2
06 24.08 З 1 20 км 8/6 1000 м
[Cb calv Ac cuf Ci ing]
+23.0 +19.6 81 +30 +32 очень
душно
1014.4 1007.2 +19.2
09 24.08 СЗ 2 20 км 8/4 1000 м
[Cb calv Ac cuf Ci ing]
+27.9 +15.2 46 +31 +37 душно 1013.9 1006.8
12 24.08 Ю 1 20 км 9/6 1000 м
[Cb calv Ac cuf Ci ing]
+29.7 +18.0 49 +34 +37 очень
душно
1013.8 1006.8
15 24.08 З 1 20 км 8/5 1000 м
[Cb calv Ac cuf Ci ing]
+27.2 +19.9 64 +33 +33 очень
душно
1013.5 1006.5 +30.4
18 24.08 З 2 20 км ясно +25.5 +20.7 75 +32 +32 очень
душно
1013.7 1006.6
21 24.08 З 1 20 км ясно +24.0 +20.5 81 +30 +30 очень
душно
1014.5 1007.4
00 25.08 З 2 20 км ясно +23.8 +21.1 85 +30 +30 очень
душно
1014.2 1007.1
03 25.08 З 1 20 км 3/0
[Cc]
+22.6 +20.6 88 +29 +29 очень
душно
1014.6 1007.5 +22.1
06 25.08 СЗ 1 20 км 3/0
[Cc]
+26.8 +16.0 52 +30 +38 душно 1015.4 1008.3 +21.6
09 25.08 З 1 20 км ясно +29.7 +15.9 43 +33 +50 душно 1015.2 1008.1
12 25.08 СЗ 1 20 км ясно +32.1 +16.0 38 +35 +46 очень
душно
1014.7 1007.7
15 25.08 С 1 20 км 3/0 2000 м
[Ac lent Ci]
+31.5 +14.1 35 +33 +34 жарко 1014.6 1007.6 +32.9
18 25.08 З 1 20 км ясно +22.6 +17.5 73 +28 +28 душно 1016.9 1009.7
21 25.08 штиль 0 20 км ясно +19.6 +17.4 87 +22 +22 комфорт 1017.3 1010.1
00 26.08 штиль 0 н/о н/о +18.1 +16.7 92 +18 +18 1017.8 1010.5
03 26.08 штиль 0 20 км ясно +16.8 +15.7 93 +17 +17 1018.3 1011.0 +16.7

 

Местоположение метеостанции Горячий Ключ (Краснодарский край, Россия): широта 44.63 долгота 39.10 высота над уровнем моря 62 м.

В архиве по умолчанию представлена погода в Горячем Ключе за последнюю неделю. Архивные данные за месяц целиком и за предыдущие месяцы, начиная с января 2011 года, Вы можете получить, выбрав интересующий диапазон дат из раскрывающегося списка и нажав кнопку "Ввод!".


*Определитесь, кто Вы:
робот инопланетянин человек

Внимание! Время в таблицах - всемирное. Для получения местного времени необходимо прибавить поправку, которая равна 3 ч.

Смотрите также архив погоды в соседних городах и на ближайших метеорологических станциях:

Погода в Горном (Краснодарский край, Россия) (41 км)
Погода в Джубге (Краснодарский край, Россия) (45 км)
Погода в Краснодаре (Краснодарский край, Россия) (47 км)
Погода в Туапсе (Краснодарский край, Россия) (59 км)
Погода в Белореченске (Краснодарский край, Россия) (65 км)
Погода в Магри (Краснодарский край, Россия) (68 км)
Погода в Майкопе (Адыгея, Россия) (78 км)
Погода в Геленджике (Краснодарский край, Россия) (81 км)
Погода в Шунтуке (Адыгея, Россия) (83 км)
Погода в Усть-Лабинске (Краснодарский край, Россия) (83 км)

Пояснения к столбцам:

Ветер - указаны скорость ветра в м/с - средняя за 10 мин, порывы в срок и между сроками (в фигурных скобках) и направление, откуда дует ветер: С - северный, СВ - северо-восточный, В - восточный, ЮВ - юго-восточный, Ю - южный, ЮЗ - юго-западный, З - западный, СЗ - северо-западный.
Видимость - горизонтальная дальность видимости в метрах или километрах. При видимости от 1 до 10 км при отсутствии осадков обычно наблюдается дымка, при ухудшении видимости до 1 км и менее - туман. В сухую погоду видимость может ухудшаться дымом, пылью или мглою.
Явления - указаны атмосферные явления, наблюдавшиеся в срок или в последний час перед сроком; фигурными скобками обозначены явления, наблюдавшиеся между сроками (за 1-3 часа до срока); квадратными скобками обозначены град или гололедные отложения с указанием их диаметра в мм.
Облачность - указаны через наклонную черту общая и нижняя облачность в баллах и высота нижней границы облаков в метрах; квадратными скобками обозначены формы облаков: Ci - перистые, Cs - перисто-слоистые, Cc - перисто-кучевые, Ac - высококучевые, As - высокослоистые, Sc - слоисто-кучевые, Ns - слоисто-дождевые, Cu - кучевые, Cb - кучево-дождевые. Подробнее классификацию облаков см. в Атласе облаков (PDF).
T - Температура воздуха - температура, измеренная на высоте 2 м над землей.
Td - Температура точки росы - температура, при понижении до которой содержащийся в воздухе водяной пар достигнет насыщения.
f - Относительная влажность воздуха - влажноcть воздуха, измеренная на высоте 2 м над землей.
Te - Эффективная температура - температура, которую ощущает одетый по сезону человек в тени. Характеристика душности погоды. При расчете учитывается влияние влажности воздуха и скорости ветра на теплоощущения человека.
Tes - Эффективная температура на солнце - температура, которую ощущает человек, с поправкой на солнечный нагрев. Характеристика знойности погоды. Зависит от высоты солнца над горизонтом, облачности и скорости ветра. Ночью, в пасмурную погоду, а также при ветре 12 м/с и более поправка равна нулю.
P - Атмосферное давление - приведенное к уровню моря атмосферное давление.
Po - Атмосферное давление - измеренное на уровне метеостанции атмосферное давление.
Tmin - Минимальная температура - минимум температуры воздуха на высоте 2 м над землей.
Tmax - Максимальная температура - максимум температуры воздуха на высоте 2 м над землей.
R - Количество осадков - Количество выпавших осадков за период времени, мм. При наведении курсора мыши на число - период времени, за который выпало указанное количество осадков.
R24 - Количество осадков - Количество выпавших осадков за 24 часа, мм.
S - Снежный покров - Высота снежного покрова, см. При наведении курсора мыши на число - состояние снежного покрова и степень покрытия местности в баллах.